Starlink 3585

operational
NORAD ID: 51875 Int'l Des: 2022-022 Owner: SPXS Country: US Constellation: starlink
LEOCIRCULAR

关于 Starlink 3585

正在加载描述...

实时位置

正在加载3D地球...

即将过境

高度历史

Altitude vs Time

uPlot chart will show altitude changes over time

两行轨道根数

1 51875U 22022Z 25260.76829885 -.00000245 00000-0 27175-5 0 9991
2 51875 53.2169 65.3067 0001093 91.2539 268.8579 15.08835037197016
Epoch: Sep 17, 2025 • Age: 35 hours

当前状态

高度 544.4 km
速度 7.60 km/s
星下点 47.80°N, 96.52°E
发射日期 Mar 3, 2022
运行时间 3.5 years
类型 internet

技术详情

分类 Payload
质量 297.00 kg
干质量 275.00 kg
总质量 297.00 kg
长度 0.20 m
直径 2.80 m
跨度 9.00 m
形状 Box + pan
制造商 SPXS
平台类型 Starlink
阶段状态 In Orbit
所有者/国家 SPXS/US

大型星座

Loading constellations...